Date String (YYYY-MM-DD hh:mm:ss) UTC,Instrument flags,Ambient pressure (hPa),Sample flow (lpm),Bypass flow (lpm),Sample temperature (°C),Ambient temperature (°C),ASC tube jacket temperature (°C),LED temperature (°C),Box temperature (°C),Sample RH (%),Span deviation,Mass concentration (μg/m³),Mass concentration (μg/m³),Mass concentration (μg/m³)
DateTimeUTC,F1_M11,P_M11,Q1_M11,Q2_M11,T1_M11,T2_M11,T3_M11,T4_M11,T5_M11,U1_M11,ZSPAN_M11,X0_M11,X2_M11,X1_M11
2023-02-02 05:00:00,,0826.8,4.99,0.00,24.2,22.5,00.0,33.1,26.0,08.6,0000.0,0022.41,0009.72,0008.45
2023-02-02 05:01:00,,0826.8,5.03,0.00,24.1,22.5,00.0,33.0,26.0,08.6,0000.0,0022.18,0009.91,0008.61
2023-02-02 05:02:00,,0826.8,5.01,0.00,24.1,22.5,00.0,33.0,26.0,08.5,0000.0,0022.23,0010.04,0008.69
2023-02-02 05:03:00,,0826.8,5.01,0.00,24.1,22.5,00.0,33.0,26.0,08.7,0000.0,0023.58,0010.31,0008.96
2023-02-02 05:04:00,,0826.8,5.00,0.00,24.1,22.5,00.0,33.0,25.9,08.8,0000.0,0023.69,0010.99,0009.58
2023-02-02 05:05:00,,0826.8,5.00,0.00,24.1,22.5,00.0,33.0,25.9,08.8,0001.0,0023.67,0011.50,0010.04
2023-02-02 05:06:00,,0826.8,5.01,0.00,24.1,22.5,00.0,33.0,25.9,08.7,0000.5,0024.88,0011.78,0010.27
2023-02-02 05:07:00,,0827.2,5.01,0.00,24.1,22.4,00.0,33.0,25.9,08.7,0000.4,0025.46,0011.87,0010.37
2023-02-02 05:08:00,,0827.1,5.00,0.00,24.1,22.4,00.0,33.0,25.9,08.7,0001.0,0025.88,0012.11,0010.53
2023-02-02 05:09:00,,0826.9,4.99,0.00,24.1,22.3,00.0,33.0,25.9,08.8,0000.7,0026.15,0012.58,0010.92
2023-02-02 05:10:00,,0826.8,4.98,0.00,24.0,22.2,00.0,33.0,25.8,08.9,0002.0,0027.52,0013.26,0011.57
2023-02-02 05:11:00,,0826.9,5.02,0.00,24.0,22.2,00.0,32.9,25.8,08.9,0003.2,0028.12,0013.71,0012.01
2023-02-02 05:12:00,,0827.2,5.00,0.00,24.0,22.3,00.0,32.9,25.7,08.9,0003.1,0029.07,0014.28,0012.54
2023-02-02 05:13:00,,0827.1,4.98,0.00,24.0,22.3,00.0,32.9,25.7,09.0,0002.4,0029.69,0015.08,0013.34
2023-02-02 05:14:00,,0827.0,5.01,0.00,24.0,22.3,00.0,32.9,25.7,09.0,0002.3,0029.54,0015.54,0013.81
2023-02-02 05:15:00,,0827.1,4.99,0.00,24.0,22.3,00.0,32.9,25.7,09.0,0002.5,0029.04,0015.57,0013.88
2023-02-02 05:16:00,,0827.1,4.99,0.00,24.0,22.3,00.0,32.9,25.7,09.0,0002.0,0028.98,0015.94,0014.24
2023-02-02 05:17:00,,0827.1,5.01,0.00,23.9,22.3,00.0,32.9,25.7,09.0,0001.9,0027.99,0016.48,0014.74
2023-02-02 05:18:00,,0827.0,5.01,0.00,23.9,22.3,00.0,32.8,25.7,09.0,0002.0,0029.30,0017.18,0015.35
2023-02-02 05:19:00,,0827.1,5.00,0.00,23.9,22.3,00.0,32.8,25.6,08.9,0001.4,0029.77,0017.50,0015.72
2023-02-02 05:20:00,,0827.4,5.01,0.00,23.9,22.3,00.0,32.8,25.6,08.9,0001.2,0029.36,0017.16,0015.47
2023-02-02 05:21:00,,0827.1,5.00,0.00,23.9,22.3,00.0,32.8,25.6,08.9,0001.1,0027.92,0016.58,0014.92
2023-02-02 05:22:00,,0827.2,5.00,0.00,23.9,22.3,00.0,32.8,25.6,08.9,0000.5,0028.26,0016.36,0014.68
2023-02-02 05:23:00,,0827.3,4.99,0.00,23.9,22.2,00.0,32.8,25.6,09.0,0000.2,0028.23,0016.18,0014.51
2023-02-02 05:24:00,,0827.1,5.00,0.00,23.8,22.2,00.0,32.8,25.5,08.9,0000.4,0027.36,0015.59,0013.93
2023-02-02 05:25:00,,0827.0,5.00,0.00,23.8,22.1,00.0,32.8,25.5,08.9,0000.8,0026.23,0015.10,0013.44
2023-02-02 05:26:00,,0827.3,5.01,0.00,23.8,22.1,00.0,32.7,25.5,08.8,0000.7,0024.90,0014.49,0012.88
2023-02-02 05:27:00,,0827.1,5.00,0.00,23.8,22.1,00.0,32.7,25.5,08.8,0001.1,0024.33,0013.89,0012.28
2023-02-02 05:28:00,,0827.0,5.03,0.00,23.7,21.9,00.0,32.7,25.5,08.8,0000.3,0023.59,0013.13,0011.59
2023-02-02 05:29:00,,0827.0,4.99,0.00,23.7,21.8,00.0,32.7,25.4,08.8,0000.0,0022.74,0012.35,0010.88
2023-02-02 05:30:00,,0827.0,4.99,0.00,23.6,21.8,00.0,32.7,25.3,08.8,0000.0,0022.46,0011.85,0010.36
2023-02-02 05:31:00,,0827.3,4.98,0.00,23.6,21.8,00.0,32.6,25.2,08.8,0000.0,0022.17,0011.81,0010.31
2023-02-02 05:32:00,,0827.3,5.00,0.00,23.6,21.8,00.0,32.6,25.2,08.9,0000.0,0022.10,0011.78,0010.28
2023-02-02 05:33:00,,0827.4,5.01,0.00,23.6,21.8,00.0,32.6,25.2,08.9,0000.0,0021.14,0011.54,0010.11
2023-02-02 05:34:00,,0827.2,5.00,0.00,23.6,21.8,00.0,32.6,25.2,08.8,0000.0,0019.43,0010.97,0009.60
2023-02-02 05:35:00,,0827.2,5.00,0.00,23.5,21.8,00.0,32.6,25.2,08.8,0000.0,0019.53,0010.72,0009.36
2023-02-02 05:36:00,,0827.2,5.01,0.00,23.5,21.8,00.0,32.5,25.2,08.8,0000.0,0020.20,0010.54,0009.23
2023-02-02 05:37:00,,0827.2,5.00,0.00,23.5,21.8,00.0,32.5,25.1,08.9,0000.7,0020.70,0010.48,0009.17
2023-02-02 05:38:00,,0827.3,5.00,0.00,23.5,21.7,00.0,32.5,25.1,08.9,0000.0,0021.70,0010.40,0009.13
2023-02-02 05:39:00,,0827.2,5.00,0.00,23.5,21.7,00.0,32.5,25.1,08.8,0000.6,0022.22,0010.23,0009.00
2023-02-02 05:40:00,,0827.3,4.97,0.00,23.4,21.7,00.0,32.5,25.2,08.8,0001.5,0021.12,0010.05,0008.89
2023-02-02 05:41:00,,0827.3,4.99,0.00,23.4,21.7,00.0,32.4,25.1,08.8,0001.1,0020.10,0009.89,0008.78
2023-02-02 05:42:00,,0827.4,4.97,0.00,23.4,21.7,00.0,32.4,25.1,08.9,0002.6,0020.34,0009.94,0008.83
2023-02-02 05:43:00,,0827.2,4.99,0.00,23.4,21.7,00.0,32.4,25.0,08.9,0003.1,0020.99,0009.94,0008.81
2023-02-02 05:44:00,,0827.3,5.00,0.00,23.3,21.6,00.0,32.4,25.1,08.9,0002.6,0021.66,0009.96,0008.84
2023-02-02 05:45:00,,0827.2,4.99,0.00,23.3,21.6,00.0,32.4,25.0,08.9,0002.7,0021.89,0010.04,0008.94
2023-02-02 05:46:00,,0827.2,5.00,0.00,23.3,21.6,00.0,32.3,25.0,08.9,0002.6,0022.48,0010.11,0009.01
2023-02-02 05:47:00,,0827.2,5.01,0.00,23.3,21.6,00.0,32.3,25.0,08.9,0003.0,0021.85,0010.04,0008.94
2023-02-02 05:48:00,,0827.3,4.99,0.00,23.3,21.6,00.0,32.3,25.0,08.9,0003.4,0021.62,0009.98,0008.87
2023-02-02 05:49:00,,0827.2,4.99,0.00,23.3,21.6,00.0,32.3,25.0,08.9,0003.5,0020.46,0009.96,0008.88
2023-02-02 05:50:00,,0827.2,4.99,0.00,23.3,21.6,00.0,32.3,25.0,08.9,0003.8,0019.68,0010.10,0009.00
2023-02-02 05:51:00,,0827.2,4.99,0.00,23.3,21.6,00.0,32.2,25.0,08.9,0003.8,0020.46,0010.37,0009.18
2023-02-02 05:52:00,,0827.2,5.00,0.00,23.2,21.6,00.0,32.2,25.0,08.9,0003.8,0020.53,0010.47,0009.26
2023-02-02 05:53:00,,0827.2,4.99,0.00,23.2,21.6,00.0,32.2,24.9,08.9,0002.2,0020.77,0010.29,0009.11
2023-02-02 05:54:00,,0827.2,5.00,0.00,23.2,21.6,00.0,32.2,25.0,08.9,0000.7,0021.30,0010.25,0009.10
2023-02-02 05:55:00,,0827.2,4.99,0.00,23.2,21.6,00.0,32.2,24.9,08.9,0000.7,0020.61,0010.31,0009.15
2023-02-02 05:56:00,,0827.2,5.01,0.00,23.2,21.5,00.0,32.2,24.8,09.0,0000.0,0020.92,0010.49,0009.29
2023-02-02 05:57:00,,0827.3,4.99,0.00,23.2,21.5,00.0,32.2,24.9,09.0,0000.0,0020.18,0010.60,0009.39
2023-02-02 05:58:00,,0827.2,5.00,0.00,23.1,21.5,00.0,32.1,24.9,09.0,0000.0,0020.01,0010.70,0009.49
2023-02-02 05:59:00,,0827.2,4.99,0.00,23.1,21.5,00.0,32.1,24.9,09.0,0000.0,0019.49,0010.74,0009.57
